owner,sensor,date,latitude,longitude,vertical_datum,sea_water_temperature,qcFlag 
DISL,ioos:station:DISL:MBLA:1,2013-01-01T06:05:00Z,30.4367,-88.0117,0.5,10.72,2 
DISL,ioos:station:DISL:MBLA:1,2013-01-01T06:07:00Z,30.4367,-88.0117,0.5,10.67,2 
DISL,ioos:station:DISL:MBLA:1,2013-01-01T06:10:00Z,30.4367,-88.0117,0.5,10.65,2 
DISL,ioos:station:DISL:MBLA:1,2013-01-01T06:12:00Z,30.4367,-88.0117,0.5,10.67,2 
DISL,ioos:station:DISL:MBLA:1,2013-01-01T06:15:00Z,30.4367,-88.0117,0.5,10.68,2 
DISL,ioos:station:DISL:MBLA:1,2013-01-01T07:03:00Z,30.4367,-88.0117,0.5,10.86,2 
DISL,ioos:station:DISL:MBLA:1,2013-01-01T07:05:00Z,30.4367,-88.0117,0.5,10.74,2 
DISL,ioos:station:DISL:MBLA:1,2013-01-01T07:07:00Z,30.4367,-88.0117,0.5,10.69,2 
DISL,ioos:station:DISL:MBLA:1,2013-01-01T07:10:00Z,30.4367,-88.0117,0.5,10.67,2 
DISL,ioos:station:DISL:MBLA:1,2013-01-01T07:12:00Z,30.4367,-88.0117,0.5,10.67,2 
DISL,ioos:station:DISL:MBLA:1,2013-01-01T07:15:00Z,30.4367,-88.0117,0.5,10.67,2 
DISL,ioos:station:DISL:MBLA:1,2013-01-01T08:02:00Z,30.4367,-88.0117,0.5,10.88,2 
DISL,ioos:station:DISL:MBLA:1,2013-01-01T08:05:00Z,30.4367,-88.0117,0.5,10.7,2 
DISL,ioos:station:DISL:MBLA:1,2013-01-01T08:07:00Z,30.4367,-88.0117,0.5,10.67,2 
DISL,ioos:station:DISL:MBLA:1,2013-01-01T08:10:00Z,30.4367,-88.0117,0.5,10.65,2 
DISL,ioos:station:DISL:MBLA:1,2013-01-01T08:12:00Z,30.4367,-88.0117,0.5,10.67,2 
DISL,ioos:station:DISL:MBLA:1,2013-01-01T08:15:00Z,30.4367,-88.0117,0.5,10.67,2 
DISL,ioos:station:DISL:MBLA:1,2013-01-01T09:03:00Z,30.4367,-88.0117,0.5,11.1,2 
DISL,ioos:station:DISL:MBLA:1,2013-01-01T09:05:00Z,30.4367,-88.0117,0.5,10.87,2 
DISL,ioos:station:DISL:MBLA:1,2013-01-01T09:07:00Z,30.4367,-88.0117,0.5,10.8,2 
DISL,ioos:station:DISL:MBLA:1,2013-01-01T09:10:00Z,30.4367,-88.0117,0.5,10.72,2 
DISL,ioos:station:DISL:MBLA:1,2013-01-01T09:12:00Z,30.4367,-88.0117,0.5,10.69,2 
DISL,ioos:station:DISL:MBLA:1,2013-01-01T09:15:00Z,30.4367,-88.0117,0.5,10.68,2 
DISL,ioos:station:DISL:MBLA:1,2013-01-01T10:02:00Z,30.4367,-88.0117,0.5,11.56,2 
DISL,ioos:station:DISL:MBLA:1,2013-01-01T10:05:00Z,30.4367,-88.0117,0.5,11.07,2 
DISL,ioos:station:DISL:MBLA:1,2013-01-01T10:07:00Z,30.4367,-88.0117,0.5,10.95,2 
DISL,ioos:station:DISL:MBLA:1,2013-01-01T10:10:00Z,30.4367,-88.0117,0.5,10.67,2 
DISL,ioos:station:DISL:MBLA:1,2013-01-01T10:12:00Z,30.4367,-88.0117,0.5,10.65,2 
DISL,ioos:station:DISL:MBLA:1,2013-01-01T10:15:00Z,30.4367,-88.0117,0.5,10.64,2 
DISL,ioos:station:DISL:MBLA:1,2013-01-01T11:03:00Z,30.4367,-88.0117,0.5,12.19,2 
DISL,ioos:station:DISL:MBLA:1,2013-01-01T11:05:00Z,30.4367,-88.0117,0.5,11.59,2 
DISL,ioos:station:DISL:MBLA:1,2013-01-01T11:07:00Z,30.4367,-88.0117,0.5,11.52,2 
DISL,ioos:station:DISL:MBLA:1,2013-01-01T11:10:00Z,30.4367,-88.0117,0.5,11.23,2 
DISL,ioos:station:DISL:MBLA:1,2013-01-01T11:12:00Z,30.4367,-88.0117,0.5,11.01,2 
DISL,ioos:station:DISL:MBLA:1,2013-01-01T11:15:00Z,30.4367,-88.0117,0.5,10.75,2 
DISL,ioos:station:DISL:MBLA:1,2013-01-01T12:03:00Z,30.4367,-88.0117,0.5,12.4,2 
DISL,ioos:station:DISL:MBLA:1,2013-01-01T12:05:00Z,30.4367,-88.0117,0.5,12.14,2 
DISL,ioos:station:DISL:MBLA:1,2013-01-01T12:07:00Z,30.4367,-88.0117,0.5,11.91,2 
DISL,ioos:station:DISL:MBLA:1,2013-01-01T12:10:00Z,30.4367,-88.0117,0.5,11.28,2 
DISL,ioos:station:DISL:MBLA:1,2013-01-01T12:12:00Z,30.4367,-88.0117,0.5,10.87,2 
DISL,ioos:station:DISL:MBLA:1,2013-01-01T12:15:00Z,30.4367,-88.0117,0.5,10.76,2 
DISL,ioos:station:DISL:MBLA:1,2013-01-01T13:03:00Z,30.4367,-88.0117,0.5,12.67,2 
DISL,ioos:station:DISL:MBLA:1,2013-01-01T13:05:00Z,30.4367,-88.0117,0.5,12.46,2 
DISL,ioos:station:DISL:MBLA:1,2013-01-01T13:07:00Z,30.4367,-88.0117,0.5,12.14,2 
DISL,ioos:station:DISL:MBLA:1,2013-01-01T13:10:00Z,30.4367,-88.0117,0.5,11.28,2 
DISL,ioos:station:DISL:MBLA:1,2013-01-01T13:12:00Z,30.4367,-88.0117,0.5,10.99,2 
DISL,ioos:station:DISL:MBLA:1,2013-01-01T13:15:00Z,30.4367,-88.0117,0.5,10.91,2 
DISL,ioos:station:DISL:MBLA:1,2013-01-01T14:02:00Z,30.4367,-88.0117,0.5,12.46,2 
DISL,ioos:station:DISL:MBLA:1,2013-01-01T14:05:00Z,30.4367,-88.0117,0.5,12.14,2 
DISL,ioos:station:DISL:MBLA:1,2013-01-01T14:07:00Z,30.4367,-88.0117,0.5,12.02,2 
DISL,ioos:station:DISL:MBLA:1,2013-01-01T14:10:00Z,30.4367,-88.0117,0.5,11.38,2 
DISL,ioos:station:DISL:MBLA:1,2013-01-01T14:12:00Z,30.4367,-88.0117,0.5,11.31,2 
DISL,ioos:station:DISL:MBLA:1,2013-01-01T14:15:00Z,30.4367,-88.0117,0.5,11.31,2 
DISL,ioos:station:DISL:MBLA:1,2013-01-01T15:03:00Z,30.4367,-88.0117,0.5,12.55,2 
DISL,ioos:station:DISL:MBLA:1,2013-01-01T15:05:00Z,30.4367,-88.0117,0.5,11.89,2 
DISL,ioos:station:DISL:MBLA:1,2013-01-01T15:07:00Z,30.4367,-88.0117,0.5,11.76,2 
DISL,ioos:station:DISL:MBLA:1,2013-01-01T15:10:00Z,30.4367,-88.0117,0.5,11.37,2 
DISL,ioos:station:DISL:MBLA:1,2013-01-01T15:12:00Z,30.4367,-88.0117,0.5,11.29,2 
DISL,ioos:station:DISL:MBLA:1,2013-01-01T15:15:00Z,30.4367,-88.0117,0.5,11.32,2 
DISL,ioos:station:DISL:MBLA:1,2013-01-01T16:03:00Z,30.4367,-88.0117,0.5,12.64,2 
DISL,ioos:station:DISL:MBLA:1,2013-01-01T16:05:00Z,30.4367,-88.0117,0.5,11.6,2 
DISL,ioos:station:DISL:MBLA:1,2013-01-01T16:07:00Z,30.4367,-88.0117,0.5,11.35,2 
DISL,ioos:station:DISL:MBLA:1,2013-01-01T16:10:00Z,30.4367,-88.0117,0.5,11.21,2 
DISL,ioos:station:DISL:MBLA:1,2013-01-01T16:12:00Z,30.4367,-88.0117,0.5,11.22,2 
DISL,ioos:station:DISL:MBLA:1,2013-01-01T16:15:00Z,30.4367,-88.0117,0.5,11.24,2 
DISL,ioos:station:DISL:MBLA:1,2013-01-01T17:02:00Z,30.4367,-88.0117,0.5,12.48,2 
DISL,ioos:station:DISL:MBLA:1,2013-01-01T17:05:00Z,30.4367,-88.0117,0.5,11.61,2 
DISL,ioos:station:DISL:MBLA:1,2013-01-01T17:07:00Z,30.4367,-88.0117,0.5,11.43,2 
DISL,ioos:station:DISL:MBLA:1,2013-01-01T17:10:00Z,30.4367,-88.0117,0.5,11.25,2 
DISL,ioos:station:DISL:MBLA:1,2013-01-01T17:12:00Z,30.4367,-88.0117,0.5,11.39,2 
DISL,ioos:station:DISL:MBLA:1,2013-01-01T17:15:00Z,30.4367,-88.0117,0.5,11.45,2 
DISL,ioos:station:DISL:MBLA:1,2013-01-01T18:02:00Z,30.4367,-88.0117,0.5,12.66,2 
DISL,ioos:station:DISL:MBLA:1,2013-01-01T18:05:00Z,30.4367,-88.0117,0.5,11.42,2 
DISL,ioos:station:DISL:MBLA:1,2013-01-01T18:07:00Z,30.4367,-88.0117,0.5,11.3,2 
DISL,ioos:station:DISL:MBLA:1,2013-01-01T18:10:00Z,30.4367,-88.0117,0.5,11.38,2 
DISL,ioos:station:DISL:MBLA:1,2013-01-01T18:12:00Z,30.4367,-88.0117,0.5,11.49,2 
DISL,ioos:station:DISL:MBLA:1,2013-01-01T18:15:00Z,30.4367,-88.0117,0.5,11.54,2 
DISL,ioos:station:DISL:MBLA:1,2013-01-01T19:02:00Z,30.4367,-88.0117,0.5,12.81,2 
DISL,ioos:station:DISL:MBLA:1,2013-01-01T19:05:00Z,30.4367,-88.0117,0.5,11.37,2 
DISL,ioos:station:DISL:MBLA:1,2013-01-01T19:07:00Z,30.4367,-88.0117,0.5,11.32,2 
DISL,ioos:station:DISL:MBLA:1,2013-01-01T19:10:00Z,30.4367,-88.0117,0.5,11.44,2 
DISL,ioos:station:DISL:MBLA:1,2013-01-01T19:13:00Z,30.4367,-88.0117,0.5,11.71,2 
DISL,ioos:station:DISL:MBLA:1,2013-01-01T19:15:00Z,30.4367,-88.0117,0.5,11.82,2 
DISL,ioos:station:DISL:MBLA:1,2013-01-01T20:02:00Z,30.4367,-88.0117,0.5,12.64,2 
DISL,ioos:station:DISL:MBLA:1,2013-01-01T20:05:00Z,30.4367,-88.0117,0.5,11.75,2 
DISL,ioos:station:DISL:MBLA:1,2013-01-01T20:07:00Z,30.4367,-88.0117,0.5,11.32,2 
DISL,ioos:station:DISL:MBLA:1,2013-01-01T20:10:00Z,30.4367,-88.0117,0.5,11.37,2 
DISL,ioos:station:DISL:MBLA:1,2013-01-01T20:12:00Z,30.4367,-88.0117,0.5,11.89,2 
DISL,ioos:station:DISL:MBLA:1,2013-01-01T20:15:00Z,30.4367,-88.0117,0.5,12.03,2 
DISL,ioos:station:DISL:MBLA:1,2013-01-01T21:02:00Z,30.4367,-88.0117,0.5,12.51,2 
DISL,ioos:station:DISL:MBLA:1,2013-01-01T21:05:00Z,30.4367,-88.0117,0.5,11.89,2 
DISL,ioos:station:DISL:MBLA:1,2013-01-01T21:07:00Z,30.4367,-88.0117,0.5,11.4,2 
DISL,ioos:station:DISL:MBLA:1,2013-01-01T21:10:00Z,30.4367,-88.0117,0.5,11.58,2 
DISL,ioos:station:DISL:MBLA:1,2013-01-01T21:12:00Z,30.4367,-88.0117,0.5,11.83,2 
DISL,ioos:station:DISL:MBLA:1,2013-01-01T21:15:00Z,30.4367,-88.0117,0.5,11.94,2 
DISL,ioos:station:DISL:MBLA:1,2013-01-01T22:02:00Z,30.4367,-88.0117,0.5,12.73,2 
DISL,ioos:station:DISL:MBLA:1,2013-01-01T22:05:00Z,30.4367,-88.0117,0.5,11.76,2 
DISL,ioos:station:DISL:MBLA:1,2013-01-01T22:07:00Z,30.4367,-88.0117,0.5,11.35,2 
DISL,ioos:station:DISL:MBLA:1,2013-01-01T22:10:00Z,30.4367,-88.0117,0.5,11.4,2 
DISL,ioos:station:DISL:MBLA:1,2013-01-01T22:12:00Z,30.4367,-88.0117,0.5,11.81,2 
DISL,ioos:station:DISL:MBLA:1,2013-01-01T22:15:00Z,30.4367,-88.0117,0.5,11.95,2 
DISL,ioos:station:DISL:MBLA:1,2013-01-01T23:02:00Z,30.4367,-88.0117,0.5,12.86,2 
DISL,ioos:station:DISL:MBLA:1,2013-01-01T23:05:00Z,30.4367,-88.0117,0.5,11.6,2 
DISL,ioos:station:DISL:MBLA:1,2013-01-01T23:07:00Z,30.4367,-88.0117,0.5,11.35,2 
DISL,ioos:station:DISL:MBLA:1,2013-01-01T23:10:00Z,30.4367,-88.0117,0.5,11.29,2 
DISL,ioos:station:DISL:MBLA:1,2013-01-01T23:12:00Z,30.4367,-88.0117,0.5,11.82,2 
DISL,ioos:station:DISL:MBLA:1,2013-01-01T23:15:00Z,30.4367,-88.0117,0.5,11.93,2 
DISL,ioos:station:DISL:MBLA:1,2013-01-02T00:02:00Z,30.4367,-88.0117,0.5,12.45,2 
DISL,ioos:station:DISL:MBLA:1,2013-01-02T00:05:00Z,30.4367,-88.0117,0.5,11.67,2 
DISL,ioos:station:DISL:MBLA:1,2013-01-02T00:07:00Z,30.4367,-88.0117,0.5,11.48,2 
DISL,ioos:station:DISL:MBLA:1,2013-01-02T00:10:00Z,30.4367,-88.0117,0.5,11.54,2 
DISL,ioos:station:DISL:MBLA:1,2013-01-02T00:12:00Z,30.4367,-88.0117,0.5,11.88,2 
DISL,ioos:station:DISL:MBLA:1,2013-01-02T00:15:00Z,30.4367,-88.0117,0.5,11.94,2 
DISL,ioos:station:DISL:MBLA:1,2013-01-02T01:02:00Z,30.4367,-88.0117,0.5,12.67,2 
DISL,ioos:station:DISL:MBLA:1,2013-01-02T01:05:00Z,30.4367,-88.0117,0.5,11.7,2 
DISL,ioos:station:DISL:MBLA:1,2013-01-02T01:07:00Z,30.4367,-88.0117,0.5,11.62,2 
DISL,ioos:station:DISL:MBLA:1,2013-01-02T01:10:00Z,30.4367,-88.0117,0.5,11.61,2 
DISL,ioos:station:DISL:MBLA:1,2013-01-02T01:12:00Z,30.4367,-88.0117,0.5,11.86,2 
DISL,ioos:station:DISL:MBLA:1,2013-01-02T01:15:00Z,30.4367,-88.0117,0.5,11.91,2 
DISL,ioos:station:DISL:MBLA:1,2013-01-02T02:02:00Z,30.4367,-88.0117,0.5,12.81,2 
DISL,ioos:station:DISL:MBLA:1,2013-01-02T02:05:00Z,30.4367,-88.0117,0.5,11.75,2 
DISL,ioos:station:DISL:MBLA:1,2013-01-02T02:07:00Z,30.4367,-88.0117,0.5,11.63,2 
DISL,ioos:station:DISL:MBLA:1,2013-01-02T02:10:00Z,30.4367,-88.0117,0.5,11.63,2 
DISL,ioos:station:DISL:MBLA:1,2013-01-02T02:12:00Z,30.4367,-88.0117,0.5,11.7,2 
DISL,ioos:station:DISL:MBLA:1,2013-01-02T02:15:00Z,30.4367,-88.0117,0.5,11.85,2 
DISL,ioos:station:DISL:MBLA:1,2013-01-02T03:02:00Z,30.4367,-88.0117,0.5,12.35,2 
DISL,ioos:station:DISL:MBLA:1,2013-01-02T03:05:00Z,30.4367,-88.0117,0.5,11.84,2 
DISL,ioos:station:DISL:MBLA:1,2013-01-02T03:07:00Z,30.4367,-88.0117,0.5,11.84,2 
DISL,ioos:station:DISL:MBLA:1,2013-01-02T03:10:00Z,30.4367,-88.0117,0.5,11.81,2 
DISL,ioos:station:DISL:MBLA:1,2013-01-02T03:12:00Z,30.4367,-88.0117,0.5,11.86,2 
DISL,ioos:station:DISL:MBLA:1,2013-01-02T03:15:00Z,30.4367,-88.0117,0.5,11.96,2 
DISL,ioos:station:DISL:MBLA:1,2013-01-02T04:02:00Z,30.4367,-88.0117,0.5,12.39,2 
DISL,ioos:station:DISL:MBLA:1,2013-01-02T04:05:00Z,30.4367,-88.0117,0.5,11.96,2 
DISL,ioos:station:DISL:MBLA:1,2013-01-02T04:07:00Z,30.4367,-88.0117,0.5,11.91,2 
DISL,ioos:station:DISL:MBLA:1,2013-01-02T04:10:00Z,30.4367,-88.0117,0.5,11.93,2 
DISL,ioos:station:DISL:MBLA:1,2013-01-02T04:12:00Z,30.4367,-88.0117,0.5,12.0,2 
DISL,ioos:station:DISL:MBLA:1,2013-01-02T04:15:00Z,30.4367,-88.0117,0.5,12.05,2 
DISL,ioos:station:DISL:MBLA:1,2013-01-02T05:02:00Z,30.4367,-88.0117,0.5,12.45,2 
DISL,ioos:station:DISL:MBLA:1,2013-01-02T05:05:00Z,30.4367,-88.0117,0.5,12.12,2 
DISL,ioos:station:DISL:MBLA:1,2013-01-02T05:07:00Z,30.4367,-88.0117,0.5,12.16,2 
DISL,ioos:station:DISL:MBLA:1,2013-01-02T05:10:00Z,30.4367,-88.0117,0.5,12.2,2 
DISL,ioos:station:DISL:MBLA:1,2013-01-02T05:12:00Z,30.4367,-88.0117,0.5,12.11,2 
DISL,ioos:station:DISL:MBLA:1,2013-01-02T05:15:00Z,30.4367,-88.0117,0.5,12.07,2 
DISL,ioos:station:DISL:MBLA:1,2013-01-02T06:02:00Z,30.4367,-88.0117,0.5,13.14,2 
DISL,ioos:station:DISL:MBLA:1,2013-01-02T06:05:00Z,30.4367,-88.0117,0.5,12.38,2 
DISL,ioos:station:DISL:MBLA:1,2013-01-02T06:07:00Z,30.4367,-88.0117,0.5,12.52,2 
DISL,ioos:station:DISL:MBLA:1,2013-01-02T06:10:00Z,30.4367,-88.0117,0.5,12.23,2 
DISL,ioos:station:DISL:MBLA:1,2013-01-02T06:13:00Z,30.4367,-88.0117,0.5,12.2,2 
DISL,ioos:station:DISL:MBLA:1,2013-01-02T06:16:00Z,30.4367,-88.0117,0.5,12.14,2 
DISL,ioos:station:DISL:MBLA:1,2013-01-02T07:03:00Z,30.4367,-88.0117,0.5,13.01,2 
DISL,ioos:station:DISL:MBLA:1,2013-01-02T07:05:00Z,30.4367,-88.0117,0.5,12.31,2 
DISL,ioos:station:DISL:MBLA:1,2013-01-02T07:07:00Z,30.4367,-88.0117,0.5,12.37,2 
DISL,ioos:station:DISL:MBLA:1,2013-01-02T07:10:00Z,30.4367,-88.0117,0.5,12.15,2 
DISL,ioos:station:DISL:MBLA:1,2013-01-02T07:13:00Z,30.4367,-88.0117,0.5,12.06,2 
DISL,ioos:station:DISL:MBLA:1,2013-01-02T07:15:00Z,30.4367,-88.0117,0.5,12.02,2 
DISL,ioos:station:DISL:MBLA:1,2013-01-02T08:03:00Z,30.4367,-88.0117,0.5,12.21,2 
DISL,ioos:station:DISL:MBLA:1,2013-01-02T08:05:00Z,30.4367,-88.0117,0.5,12.48,2 
DISL,ioos:station:DISL:MBLA:1,2013-01-02T08:07:00Z,30.4367,-88.0117,0.5,12.56,2 
DISL,ioos:station:DISL:MBLA:1,2013-01-02T08:10:00Z,30.4367,-88.0117,0.5,12.34,2 
DISL,ioos:station:DISL:MBLA:1,2013-01-02T08:12:00Z,30.4367,-88.0117,0.5,12.07,2 
DISL,ioos:station:DISL:MBLA:1,2013-01-02T08:15:00Z,30.4367,-88.0117,0.5,12.0,2 
DISL,ioos:station:DISL:MBLA:1,2013-01-02T09:02:00Z,30.4367,-88.0117,0.5,12.99,2 
DISL,ioos:station:DISL:MBLA:1,2013-01-02T09:05:00Z,30.4367,-88.0117,0.5,12.39,2 
DISL,ioos:station:DISL:MBLA:1,2013-01-02T09:07:00Z,30.4367,-88.0117,0.5,12.39,2 
DISL,ioos:station:DISL:MBLA:1,2013-01-02T09:10:00Z,30.4367,-88.0117,0.5,12.23,2 
DISL,ioos:station:DISL:MBLA:1,2013-01-02T09:12:00Z,30.4367,-88.0117,0.5,12.02,2 
DISL,ioos:station:DISL:MBLA:1,2013-01-02T09:15:00Z,30.4367,-88.0117,0.5,11.96,2 
DISL,ioos:station:DISL:MBLA:1,2013-01-02T10:03:00Z,30.4367,-88.0117,0.5,13.23,2 
DISL,ioos:station:DISL:MBLA:1,2013-01-02T10:05:00Z,30.4367,-88.0117,0.5,12.54,2 
DISL,ioos:station:DISL:MBLA:1,2013-01-02T10:07:00Z,30.4367,-88.0117,0.5,12.53,2 
DISL,ioos:station:DISL:MBLA:1,2013-01-02T10:10:00Z,30.4367,-88.0117,0.5,12.35,2 
DISL,ioos:station:DISL:MBLA:1,2013-01-02T10:12:00Z,30.4367,-88.0117,0.5,12.14,2 
DISL,ioos:station:DISL:MBLA:1,2013-01-02T10:15:00Z,30.4367,-88.0117,0.5,12.03,2 
DISL,ioos:station:DISL:MBLA:1,2013-01-02T11:02:00Z,30.4367,-88.0117,0.5,13.18,2 
DISL,ioos:station:DISL:MBLA:1,2013-01-02T11:05:00Z,30.4367,-88.0117,0.5,12.61,2 
DISL,ioos:station:DISL:MBLA:1,2013-01-02T11:07:00Z,30.4367,-88.0117,0.5,12.37,2 
DISL,ioos:station:DISL:MBLA:1,2013-01-02T11:10:00Z,30.4367,-88.0117,0.5,12.15,2 
DISL,ioos:station:DISL:MBLA:1,2013-01-02T11:12:00Z,30.4367,-88.0117,0.5,12.05,2 
DISL,ioos:station:DISL:MBLA:1,2013-01-02T11:15:00Z,30.4367,-88.0117,0.5,12.01,2 
DISL,ioos:station:DISL:MBLA:1,2013-01-02T12:03:00Z,30.4367,-88.0117,0.5,13.27,2 
DISL,ioos:station:DISL:MBLA:1,2013-01-02T12:05:00Z,30.4367,-88.0117,0.5,12.54,2 
DISL,ioos:station:DISL:MBLA:1,2013-01-02T12:07:00Z,30.4367,-88.0117,0.5,12.38,2 
DISL,ioos:station:DISL:MBLA:1,2013-01-02T12:10:00Z,30.4367,-88.0117,0.5,12.2,2 
DISL,ioos:station:DISL:MBLA:1,2013-01-02T12:12:00Z,30.4367,-88.0117,0.5,12.05,2 
DISL,ioos:station:DISL:MBLA:1,2013-01-02T12:15:00Z,30.4367,-88.0117,0.5,11.99,2 
DISL,ioos:station:DISL:MBLA:1,2013-01-02T13:03:00Z,30.4367,-88.0117,0.5,13.47,2 
DISL,ioos:station:DISL:MBLA:1,2013-01-02T13:05:00Z,30.4367,-88.0117,0.5,12.47,2 
DISL,ioos:station:DISL:MBLA:1,2013-01-02T13:08:00Z,30.4367,-88.0117,0.5,12.21,2 
DISL,ioos:station:DISL:MBLA:1,2013-01-02T13:10:00Z,30.4367,-88.0117,0.5,12.1,2 
DISL,ioos:station:DISL:MBLA:1,2013-01-02T13:13:00Z,30.4367,-88.0117,0.5,11.99,2 
DISL,ioos:station:DISL:MBLA:1,2013-01-02T13:15:00Z,30.4367,-88.0117,0.5,11.89,2 
DISL,ioos:station:DISL:MBLA:1,2013-01-02T14:02:00Z,30.4367,-88.0117,0.5,12.78,2 
DISL,ioos:station:DISL:MBLA:1,2013-01-02T14:05:00Z,30.4367,-88.0117,0.5,12.34,2 
DISL,ioos:station:DISL:MBLA:1,2013-01-02T14:07:00Z,30.4367,-88.0117,0.5,12.16,2 
DISL,ioos:station:DISL:MBLA:1,2013-01-02T14:10:00Z,30.4367,-88.0117,0.5,12.09,2 
DISL,ioos:station:DISL:MBLA:1,2013-01-02T14:12:00Z,30.4367,-88.0117,0.5,12.0,2 
DISL,ioos:station:DISL:MBLA:1,2013-01-02T14:15:00Z,30.4367,-88.0117,0.5,11.92,2 
DISL,ioos:station:DISL:MBLA:1,2013-01-02T15:03:00Z,30.4367,-88.0117,0.5,13.14,2 
DISL,ioos:station:DISL:MBLA:1,2013-01-02T15:05:00Z,30.4367,-88.0117,0.5,12.33,2 
DISL,ioos:station:DISL:MBLA:1,2013-01-02T15:07:00Z,30.4367,-88.0117,0.5,12.27,2 
DISL,ioos:station:DISL:MBLA:1,2013-01-02T15:10:00Z,30.4367,-88.0117,0.5,12.37,2 
DISL,ioos:station:DISL:MBLA:1,2013-01-02T15:13:00Z,30.4367,-88.0117,0.5,12.05,2 
DISL,ioos:station:DISL:MBLA:1,2013-01-02T15:15:00Z,30.4367,-88.0117,0.5,11.97,2 
DISL,ioos:station:DISL:MBLA:1,2013-01-02T16:02:00Z,30.4367,-88.0117,0.5,12.62,2 
DISL,ioos:station:DISL:MBLA:1,2013-01-02T16:05:00Z,30.4367,-88.0117,0.5,12.21,2 
DISL,ioos:station:DISL:MBLA:1,2013-01-02T16:07:00Z,30.4367,-88.0117,0.5,12.12,2 
DISL,ioos:station:DISL:MBLA:1,2013-01-02T16:10:00Z,30.4367,-88.0117,0.5,12.09,2 
DISL,ioos:station:DISL:MBLA:1,2013-01-02T16:13:00Z,30.4367,-88.0117,0.5,12.07,2 
DISL,ioos:station:DISL:MBLA:1,2013-01-02T16:15:00Z,30.4367,-88.0117,0.5,12.06,2 
DISL,ioos:station:DISL:MBLA:1,2013-01-02T17:03:00Z,30.4367,-88.0117,0.5,12.47,2 
DISL,ioos:station:DISL:MBLA:1,2013-01-02T17:05:00Z,30.4367,-88.0117,0.5,12.2,2 
DISL,ioos:station:DISL:MBLA:1,2013-01-02T17:08:00Z,30.4367,-88.0117,0.5,12.16,2 
DISL,ioos:station:DISL:MBLA:1,2013-01-02T17:10:00Z,30.4367,-88.0117,0.5,12.12,2 
DISL,ioos:station:DISL:MBLA:1,2013-01-02T17:13:00Z,30.4367,-88.0117,0.5,12.09,2 
DISL,ioos:station:DISL:MBLA:1,2013-01-02T17:16:00Z,30.4367,-88.0117,0.5,12.07,2 
DISL,ioos:station:DISL:MBLA:1,2013-01-02T18:03:00Z,30.4367,-88.0117,0.5,12.39,2 
DISL,ioos:station:DISL:MBLA:1,2013-01-02T18:05:00Z,30.4367,-88.0117,0.5,12.19,2 
DISL,ioos:station:DISL:MBLA:1,2013-01-02T18:08:00Z,30.4367,-88.0117,0.5,12.13,2 
DISL,ioos:station:DISL:MBLA:1,2013-01-02T18:10:00Z,30.4367,-88.0117,0.5,12.11,2 
DISL,ioos:station:DISL:MBLA:1,2013-01-02T18:13:00Z,30.4367,-88.0117,0.5,12.1,2 
DISL,ioos:station:DISL:MBLA:1,2013-01-02T18:15:00Z,30.4367,-88.0117,0.5,12.09,2 
DISL,ioos:station:DISL:MBLA:1,2013-01-02T19:02:00Z,30.4367,-88.0117,0.5,12.24,2 
DISL,ioos:station:DISL:MBLA:1,2013-01-02T19:05:00Z,30.4367,-88.0117,0.5,12.22,2 
DISL,ioos:station:DISL:MBLA:1,2013-01-02T19:07:00Z,30.4367,-88.0117,0.5,12.15,2 
DISL,ioos:station:DISL:MBLA:1,2013-01-02T19:10:00Z,30.4367,-88.0117,0.5,12.12,2 
DISL,ioos:station:DISL:MBLA:1,2013-01-02T19:13:00Z,30.4367,-88.0117,0.5,12.1,2 
DISL,ioos:station:DISL:MBLA:1,2013-01-02T19:15:00Z,30.4367,-88.0117,0.5,12.09,2 
DISL,ioos:station:DISL:MBLA:1,2013-01-02T20:03:00Z,30.4367,-88.0117,0.5,12.29,2 
DISL,ioos:station:DISL:MBLA:1,2013-01-02T20:05:00Z,30.4367,-88.0117,0.5,12.21,2 
DISL,ioos:station:DISL:MBLA:1,2013-01-02T20:07:00Z,30.4367,-88.0117,0.5,12.23,2 
DISL,ioos:station:DISL:MBLA:1,2013-01-02T20:10:00Z,30.4367,-88.0117,0.5,12.23,2 
DISL,ioos:station:DISL:MBLA:1,2013-01-02T20:13:00Z,30.4367,-88.0117,0.5,12.23,2 
DISL,ioos:station:DISL:MBLA:1,2013-01-02T20:15:00Z,30.4367,-88.0117,0.5,12.22,2 
DISL,ioos:station:DISL:MBLA:1,2013-01-02T21:03:00Z,30.4367,-88.0117,0.5,12.86,2 
DISL,ioos:station:DISL:MBLA:1,2013-01-02T21:05:00Z,30.4367,-88.0117,0.5,12.39,2 
DISL,ioos:station:DISL:MBLA:1,2013-01-02T21:07:00Z,30.4367,-88.0117,0.5,12.33,2 
DISL,ioos:station:DISL:MBLA:1,2013-01-02T21:11:00Z,30.4367,-88.0117,0.5,12.28,2 
DISL,ioos:station:DISL:MBLA:1,2013-01-02T21:14:00Z,30.4367,-88.0117,0.5,12.24,2 
DISL,ioos:station:DISL:MBLA:1,2013-01-02T21:16:00Z,30.4367,-88.0117,0.5,12.21,2 
DISL,ioos:station:DISL:MBLA:1,2013-01-02T22:02:00Z,30.4367,-88.0117,0.5,12.63,2 
DISL,ioos:station:DISL:MBLA:1,2013-01-02T22:05:00Z,30.4367,-88.0117,0.5,12.4,2 
DISL,ioos:station:DISL:MBLA:1,2013-01-02T22:07:00Z,30.4367,-88.0117,0.5,12.28,2 
DISL,ioos:station:DISL:MBLA:1,2013-01-02T22:10:00Z,30.4367,-88.0117,0.5,12.22,2 
DISL,ioos:station:DISL:MBLA:1,2013-01-02T22:12:00Z,30.4367,-88.0117,0.5,12.19,2 
DISL,ioos:station:DISL:MBLA:1,2013-01-02T22:15:00Z,30.4367,-88.0117,0.5,12.14,2 
DISL,ioos:station:DISL:MBLA:1,2013-01-02T23:02:00Z,30.4367,-88.0117,0.5,12.43,2 
DISL,ioos:station:DISL:MBLA:1,2013-01-02T23:05:00Z,30.4367,-88.0117,0.5,12.22,2 
DISL,ioos:station:DISL:MBLA:1,2013-01-02T23:07:00Z,30.4367,-88.0117,0.5,12.2,2 
DISL,ioos:station:DISL:MBLA:1,2013-01-02T23:10:00Z,30.4367,-88.0117,0.5,12.18,2 
DISL,ioos:station:DISL:MBLA:1,2013-01-02T23:13:00Z,30.4367,-88.0117,0.5,12.15,2 
DISL,ioos:station:DISL:MBLA:1,2013-01-02T23:16:00Z,30.4367,-88.0117,0.5,12.14,2 
DISL,ioos:station:DISL:MBLA:1,2013-01-03T00:02:00Z,30.4367,-88.0117,0.5,12.45,2 
DISL,ioos:station:DISL:MBLA:1,2013-01-03T00:05:00Z,30.4367,-88.0117,0.5,12.22,2 
DISL,ioos:station:DISL:MBLA:1,2013-01-03T00:07:00Z,30.4367,-88.0117,0.5,12.21,2 
DISL,ioos:station:DISL:MBLA:1,2013-01-03T00:10:00Z,30.4367,-88.0117,0.5,12.18,2 
DISL,ioos:station:DISL:MBLA:1,2013-01-03T00:12:00Z,30.4367,-88.0117,0.5,12.12,2 
DISL,ioos:station:DISL:MBLA:1,2013-01-03T00:15:00Z,30.4367,-88.0117,0.5,12.1,2 
DISL,ioos:station:DISL:MBLA:1,2013-01-03T01:03:00Z,30.4367,-88.0117,0.5,12.72,2 
DISL,ioos:station:DISL:MBLA:1,2013-01-03T01:05:00Z,30.4367,-88.0117,0.5,12.31,2 
DISL,ioos:station:DISL:MBLA:1,2013-01-03T01:08:00Z,30.4367,-88.0117,0.5,12.2,2 
DISL,ioos:station:DISL:MBLA:1,2013-01-03T01:10:00Z,30.4367,-88.0117,0.5,12.13,2 
DISL,ioos:station:DISL:MBLA:1,2013-01-03T01:13:00Z,30.4367,-88.0117,0.5,12.12,2 
DISL,ioos:station:DISL:MBLA:1,2013-01-03T01:15:00Z,30.4367,-88.0117,0.5,12.11,2 
DISL,ioos:station:DISL:MBLA:1,2013-01-03T02:03:00Z,30.4367,-88.0117,0.5,12.41,2 
DISL,ioos:station:DISL:MBLA:1,2013-01-03T02:05:00Z,30.4367,-88.0117,0.5,12.33,2 
DISL,ioos:station:DISL:MBLA:1,2013-01-03T02:08:00Z,30.4367,-88.0117,0.5,12.18,2 
DISL,ioos:station:DISL:MBLA:1,2013-01-03T02:10:00Z,30.4367,-88.0117,0.5,12.11,2 
DISL,ioos:station:DISL:MBLA:1,2013-01-03T02:13:00Z,30.4367,-88.0117,0.5,12.09,2 
DISL,ioos:station:DISL:MBLA:1,2013-01-03T02:15:00Z,30.4367,-88.0117,0.5,12.07,2 
DISL,ioos:station:DISL:MBLA:1,2013-01-03T03:02:00Z,30.4367,-88.0117,0.5,12.63,2 
DISL,ioos:station:DISL:MBLA:1,2013-01-03T03:05:00Z,30.4367,-88.0117,0.5,12.45,2 
DISL,ioos:station:DISL:MBLA:1,2013-01-03T03:08:00Z,30.4367,-88.0117,0.5,12.43,2 
DISL,ioos:station:DISL:MBLA:1,2013-01-03T03:10:00Z,30.4367,-88.0117,0.5,12.28,2 
DISL,ioos:station:DISL:MBLA:1,2013-01-03T03:13:00Z,30.4367,-88.0117,0.5,12.2,2 
DISL,ioos:station:DISL:MBLA:1,2013-01-03T03:16:00Z,30.4367,-88.0117,0.5,12.17,2 
DISL,ioos:station:DISL:MBLA:1,2013-01-03T04:02:00Z,30.4367,-88.0117,0.5,12.85,2 
DISL,ioos:station:DISL:MBLA:1,2013-01-03T04:05:00Z,30.4367,-88.0117,0.5,12.69,2 
DISL,ioos:station:DISL:MBLA:1,2013-01-03T04:09:00Z,30.4367,-88.0117,0.5,12.34,2 
DISL,ioos:station:DISL:MBLA:1,2013-01-03T04:11:00Z,30.4367,-88.0117,0.5,12.37,2 
DISL,ioos:station:DISL:MBLA:1,2013-01-03T04:14:00Z,30.4367,-88.0117,0.5,12.14,2 
DISL,ioos:station:DISL:MBLA:1,2013-01-03T04:16:00Z,30.4367,-88.0117,0.5,11.97,2 
DISL,ioos:station:DISL:MBLA:1,2013-01-03T05:02:00Z,30.4367,-88.0117,0.5,12.5,2 
DISL,ioos:station:DISL:MBLA:1,2013-01-03T05:05:00Z,30.4367,-88.0117,0.5,12.24,2 
DISL,ioos:station:DISL:MBLA:1,2013-01-03T05:07:00Z,30.4367,-88.0117,0.5,12.19,2 
DISL,ioos:station:DISL:MBLA:1,2013-01-03T05:10:00Z,30.4367,-88.0117,0.5,12.05,2 
DISL,ioos:station:DISL:MBLA:1,2013-01-03T05:13:00Z,30.4367,-88.0117,0.5,11.9,2 
DISL,ioos:station:DISL:MBLA:1,2013-01-03T05:15:00Z,30.4367,-88.0117,0.5,11.88,2 
DISL,ioos:station:DISL:MBLA:1,2013-01-03T06:03:00Z,30.4367,-88.0117,0.5,12.62,2 
DISL,ioos:station:DISL:MBLA:1,2013-01-03T06:05:00Z,30.4367,-88.0117,0.5,12.51,2 
DISL,ioos:station:DISL:MBLA:1,2013-01-03T06:08:00Z,30.4367,-88.0117,0.5,12.23,2 
DISL,ioos:station:DISL:MBLA:1,2013-01-03T06:10:00Z,30.4367,-88.0117,0.5,12.17,2 
DISL,ioos:station:DISL:MBLA:1,2013-01-03T06:13:00Z,30.4367,-88.0117,0.5,11.93,2 
DISL,ioos:station:DISL:MBLA:1,2013-01-03T06:16:00Z,30.4367,-88.0117,0.5,11.82,2 
DISL,ioos:station:DISL:MBLA:1,2013-01-03T07:02:00Z,30.4367,-88.0117,0.5,12.66,2 
DISL,ioos:station:DISL:MBLA:1,2013-01-03T07:05:00Z,30.4367,-88.0117,0.5,12.43,2 